Regional Weather Roundup
Issued by NWS

Home | Current Version | Previous Version | Text Only | Print | Product List | Glossary Off
Versions: 1 2 3 4 5 6 7 8 9 10 11 12 13 14 15 16 17 18 19 20 21 22 23 24 25 26 27 28 29 30 31 32 33 34 35 36 37 38 39 40 41 42 43 44 45 46 47 48 49 50

000
ASUS43 KDMX 271801
RWRIA

WEATHER ROUNDUP FOR IOWA
NATIONAL WEATHER SERVICE DES MOINES IA
100 PM CDT SAT MAY 27 2017

NOTE: "FAIR" INDICATES FEW OR NO CLOUDS BELOW 12,000 FEET WITH NO
SIGNIFICANT WEATHER AND/OR OBSTRUCTIONS TO VISIBILITY.

* - THESE STATIONS ARE NOT NWS STATIONS...THUS NOT UNDER NWS
QUALITY CONTROL.  THEY ALSO DO NOT REPORT WEATHER SUCH
AS PRECIPITATION OR FOG.

IAZ001>003-012>014-020>022-031>034-043>046-271900-
   NORTHWEST IOWA

CITY           SKY/WX    TMP DP  RH WIND       PRES   REMARKS
CARROLL *      CLOUDY    59  57  94 NE9       29.90F
CHEROKEE *     CLOUDY    64  55  75 NE10      29.93F
DENISON *      CLOUDY    61  54  77 E10       29.91F
LE MARS *      CLOUDY    64  52  63 NE10      29.95F
ORANGE CITY *  CLOUDY    61  52  72 E3        29.95F
SHELDON *      CLOUDY    61  54  77 CALM      29.95S
SIOUX CITY     PTSUNNY   70  52  52 NE12G18   29.92F
6HR MIN TEMP:  56; 6HR MAX TEMP:  71;

SPENCER        LGT RAIN  62  52  69 NE3       29.96S
6HR MIN TEMP:  54; 6HR MAX TEMP:  64; 6HR PCP:  0.01;

STORM LAKE *   CLOUDY    64  48  55 N10       29.93F
$$

IAZ055>058-069>071-079>083-090>094-271900-
   SOUTHWEST IOWA

CITY           SKY/WX    TMP DP  RH WIND       PRES   REMARKS
ATLANTIC *     CLOUDY    61  57  88 NE10G18   29.87F
AUDUBON *      RAIN      57  54  88 NE16      29.86F
CLARINDA *     CLOUDY    64  61  88 NE9       29.88F
COUNCIL BLFS * CLOUDY    64  61  88 E13       29.88S
CRESTON *      DRIZZLE   63  61  94 N9        29.89F
HARLAN  *      CLOUDY    61  57  88 NE14G21   29.91S
LAMONI         CLOUDY    67  62  84 SW12G22   29.87R
6HR MIN TEMP:  61; 6HR MAX TEMP:  68; 6HR PCP:  0.08;

RED OAK *      PTSUNNY   64  59  82 NE12G18   29.88S
SHENANDOAH *   CLOUDY    66  61  82 NE12      29.87F
$$

IAZ047>049-059>061-072>074-084-271900-
   CENTRAL IOWA

CITY           SKY/WX    TMP DP  RH WIND       PRES   REMARKS
AMES           HVY RAIN  61  58  90 N14       29.91F FOG
6HR MIN TEMP:  57; 6HR MAX TEMP:  71; 6HR PCP:  0.29;

ANKENY *       CLOUDY    64  63  94 NW3       29.90F
BOONE *        RAIN      59  57  94 N16       29.90F
CHARITON *     CLOUDY    68  61  77 SE20      29.81F
DES MOINES     LGT RAIN  66  61  84 CALM      29.88F
6HR MIN TEMP:  61; 6HR MAX TEMP:  70; 6HR PCP:  0.17;

GRINNELL*      CLOUDY    69  61  74 SE7       29.92S
KNOXVILLE *    CLOUDY    68  61  77 SE3       29.86F
MARSHALLTOWN   CLOUDY    70  61  73 SE8       29.90R
6HR MIN TEMP:  53; 6HR MAX TEMP:  72;

NEWTON *       FOG       61  61 100 SW7G22    29.90R VSB 3/4
PELLA *        LGT RAIN  65  63  91 CALM      29.90F
PERRY *        LGT RAIN  61  58  90 N12       29.91F
$$

IAZ004>006-015-016-023>025-035-036-271900-
   NORTH CENTRAL IOWA

CITY           SKY/WX    TMP DP  RH WIND       PRES   REMARKS
ALGONA *       CLOUDY    68  45  42 CALM      29.95R
CLARION *      CLOUDY    70  45  40 W6        29.94R
ESTHERVILLE    LGT RAIN  63  50  62 CALM      29.95S
6HR MIN TEMP:  52; 6HR MAX TEMP:  66; 6HR PCP: TRACE;

FORT DODGE *   CLOUDY    64  54  68 SW3       29.96R
MASON CITY     CLOUDY    71  44  37 VRB6      29.93F
6HR MIN TEMP:  55; 6HR MAX TEMP:  72;

FOREST CITY *    N/A     72  36  26 N3        29.93S
WEBSTER CITY * LGT RAIN  63  57  82 S15G23    29.95R
IOWA FALLS *   CLOUDY    72  51  48 CALM      29.92S
$$

IAZ007>011-017>019-026>030-037>042-050>054-066-271900-
   NORTHEAST IOWA

CITY           SKY/WX    TMP DP  RH WIND       PRES   REMARKS
CEDAR RAPIDS   CLOUDY    69  64  84 SE3       29.91F
6HR MIN TEMP:  55; 6HR MAX TEMP:  69;

CHARLES CITY * CLOUDY    72  50  46 CALM      29.93F
CLINTON *      CLOUDY    67  61  81 SW3       29.93F
DECORAH *      PTSUNNY   70  57  64 CALM      29.92S
DUBUQUE        MOSUNNY   69  60  73 SW6       29.93F
6HR MIN TEMP:  55; 6HR MAX TEMP:  69;

MONTICELLO *   CLOUDY    68  63  83 SE5       29.93S
OELWEIN *      CLOUDY    72  61  68 SW5       29.93S
WATERLOO       CLOUDY    72  56  57 CALM      29.91S
6HR MIN TEMP:  57; 6HR MAX TEMP:  73;

$$

IAZ064-065-067-068-078-271900-
   EAST CENTRAL IOWA

CITY           SKY/WX    TMP DP  RH WIND       PRES   REMARKS
DAVENPORT      CLOUDY    70  60  70 CALM      29.92F
6HR MIN TEMP:  56; 6HR MAX TEMP:  70;

IOWA CITY      CLOUDY    70  62  76 SE5       29.92F
6HR MIN TEMP:  55; 6HR MAX TEMP:  71;

MT. PLEASANT * MOSUNNY   75  59  56 CALM      29.91F
MUSCATINE *    CLOUDY    72  63  73 VRB5      29.91F
QUAD CITIES    CLOUDY    71  61  70 CALM      29.91F
6HR MIN TEMP:  58; 6HR MAX TEMP:  71;

$$

IAZ062-063-075>077-085>089-095>099-271900-
   SOUTHEAST IOWA

CITY           SKY/WX    TMP DP  RH WIND       PRES   REMARKS
BURLINGTON     CLOUDY    69  62  78 E6        29.91F
6HR MIN TEMP:  58; 6HR MAX TEMP:  70;

FAIRFIELD *    CLOUDY    73  63  68 VRB6      29.91S
FORT MADISON * PTSUNNY   72  64  78 E5        29.92F
KEOKUK *       CLOUDY    72  63  73 NE6       29.89F
OSKALOOSA *      N/A     75  63  66 SE10      29.89F
OTTUMWA        CLOUDY    76  64  66 SE7       29.89F
6HR MIN TEMP:  60; 6HR MAX TEMP:  76;

WASHINGTON *   CLOUDY    70  64  83 SE6       29.91F
$$

ABBREVIATIONS USED IN REMARKS
   TC - TEMPERATURES IN CELSIUS
  WCI - WIND CHILL INDEX
   HX - HEAT INDEX
  VSB - VISIBILITY
$$





USA.gov is the U.S. government's official web portal to all federal, state and local government web resources and services.